Location: Worth Mountain WMA
(34.9569°N, 81.4819°W)
Time: 16:27:42
(UTC-04:00)

Daily predictions for brighter satellites

Satellite Brightness Start Highest point End
(mag) Time Altitude Azimuth Time Altitude Azimuth Time Altitude Azimuth
Cosmos 2278 Rocket 3.6 20:02:20 10° SW 20:07:43 44° WNW 20:13:09 10° N
Resurs 01 Rocket 2.6 20:06:21 10° SE 20:10:06 28° ENE 20:13:52 10° NNE
CZ-4C R/B 3.7 20:11:25 10° SE 20:13:14 12° ESE 20:15:07 10° E
Cosmos 1733 4.4 20:10:28 10° SE 20:13:31 23° E 20:16:35 10° NE
Cosmos 1605 Rocket 4.0 20:08:15 10° S 20:14:31 82° E 20:20:55 10° N
Helios 1B rocket 3.8 20:18:24 10° NE 20:21:17 18° E 20:24:08 10° SE
Cosmos 1269 Rocket 4.2 20:16:43 10° N 20:21:54 53° ENE 20:27:02 10° SSE
COSMOS 2487 2.9 20:18:33 10° N 20:21:59 42° ENE 20:25:22 10° SE
Cosmos 1470 3.4 20:22:05 10° SSE 20:25:42 35° E 20:29:20 10° NNE
Cosmos 1818 3.6 20:21:42 10° NNW 20:27:10 85° WSW 20:32:34 10° SSE
PSLV R/B 3.3 20:25:12 10° SW 20:28:16 52° SSE 20:31:00 13° ENE
Cosmos 2297 4.2 20:22:40 10° SSW 20:28:19 68° WNW 20:34:03 10° NNE
Cosmos 2123 Rocket 4.4 20:27:41 10° NNW 20:33:56 68° W 20:40:07 10° S
Cosmos 1408 Rocket 3.9 20:30:07 10° N 20:34:26 46° E 20:38:43 10° SSE
H-2A R/B 2.9 20:30:45 10° SSE 20:34:34 54° ENE 20:38:24 10° N
OAO 2 Rocket 3.6 20:32:45 10° WSW 20:37:46 56° SSE 20:41:53 16° E
Spot 2 Rocket 3.6 20:33:02 10° SSE 20:38:01 56° ENE 20:43:02 10° N
Resurs 1-3 3.8 20:36:20 10° SSE 20:40:35 52° ENE 20:44:51 10° N
Cosmos 2082 Rocket 2.1 20:35:49 10° NNW 20:41:31 78° ENE 20:47:09 10° SSE
GPS 2-05 Rocket1 2.9 20:38:55 10° W 20:42:26 79° N 20:44:44 21° E
Cosmos 1076 Rocket 3.5 20:41:04 10° N 20:45:20 86° W 20:49:34 10° S
SJ-6B 3.9 20:42:11 10° S 20:45:45 44° W 20:49:21 10° NNW
Cosmos 1802 Rocket 4.2 20:41:00 10° SSE 20:46:47 46° E 20:52:38 10° NNE
Cosmos 1842 Rocket 4.3 20:44:17 10° SSE 20:48:08 30° E 20:51:57 10° NNE
Helios 1A 3.7 20:45:49 18° ESE 20:48:13 32° ENE 20:51:57 10° N
Cosmos 1184 Rocket 4.2 20:46:06 10° NNE 20:48:38 21° ENE 20:48:38 21° ENE
CZ-4B DEB 4.5 20:49:48 17° ENE 20:49:48 17° ENE 20:51:27 10° NNE
Cosmos 1340 Rocket 3.1 20:46:40 10° N 20:50:30 43° E 20:53:08 18° SE
Meteor 1-4 Rocket 4.4 20:47:38 10° SW 20:50:47 32° WNW 20:53:57 10° NNW
FengYun 1-2 T 4.4 20:45:51 10° S 20:51:24 76° WSW 20:57:03 10° NNW
Cosmos 389 Rocket 4.2 20:52:52 17° ENE 20:52:52 17° ENE 20:54:13 10° NE
SeaSat 1 2.4 20:50:09 11° SSE 20:54:57 74° ENE 20:59:54 10° NNW
Envisat 3.8 20:54:15 22° ESE 20:56:26 31° ENE 21:00:51 10° N
Cosmos 1271 Rocket 3.0 20:54:52 10° SSW 20:58:51 75° W 21:02:54 10° N
Cosmos 1459 Rocket 3.9 20:54:16 10° S 21:00:28 74° E 21:06:38 10° N
Cosmos 1356 Rocket 4.3 20:57:14 10° NNE 21:00:41 26° ENE 21:00:45 26° ENE
Cosmos 1674 2.7 20:57:31 10° N 21:01:20 79° W 21:05:08 10° S
ISS -0.9 21:00:01 10° WNW 21:01:57 15° NNW 21:03:54 10° N
ERS-1 Rocket 4.4 21:03:09 19° ENE 21:03:17 19° ENE 21:06:42 10° NNE
Cosmos 2061 Rocket 4.0 21:01:17 10° S 21:07:39 78° E 21:14:05 10° N
SL-14 R/B 4.1 21:04:38 10° NNE 21:07:46 30° ENE 21:07:46 30° ENE
Cosmos 2173 Rocket 3.9 21:05:02 10° S 21:11:12 89° E 21:17:31 10° N
Geosat 3.9 21:06:37 10° NNE 21:11:39 77° ESE 21:16:39 10° SSW
Cosmos-2242 3.8 21:08:32 10° SSW 21:12:40 52° W 21:16:51 10° N
Timation 2 Rocket 4.2 21:10:55 10° NNW 21:17:05 69° WSW 21:22:38 12° S
Cosmos 1328 3.8 21:15:56 10° N 21:19:48 52° E 21:19:50 52° E
Cosmos 2369 Rocket 2.2 21:21:11 10° S 21:26:39 54° ESE 21:32:07 10° NNE
Aurora 2 Rocket 4.3 21:20:46 10° WSW 21:27:45 33° SSW 21:29:40 28° SSE
Meteor 2-1 Rocket 4.4 21:27:08 40° SE 21:28:21 46° E 21:33:44 10° NNE
SJ-11-01 4.2 21:30:10 54° ESE 21:30:55 62° ENE 21:35:35 10° N
GP-B 4.4 21:29:42 10° SSW 21:33:53 41° W 21:38:04 10° NNW
Cosmos 2058 4.2 21:30:57 10° N 21:33:12 27° NNE 21:33:12 27° NNE
Cosmos 1939 Rocket 3.0 21:40:21 64° NNE 21:40:21 64° NNE 21:44:01 10° N
Cosmos 1833 Rocket 4.2 21:35:37 10° NW 21:40:36 34° WSW 21:45:35 10° SSW
Meteor 1-29 4.1 21:39:47 10° N 21:43:07 43° WNW 21:44:59 22° SW
Cosmos 2016 Rocket 4.2 21:37:39 10° SSW 21:43:50 70° W 21:49:59 10° N
Lacrosse 5 rocket 2.2 21:42:46 10° NW 21:46:14 37° WSW 21:46:14 37° WSW
Resurs 01 Rocket 4.0 21:43:08 10° SW 21:46:31 22° W 21:49:56 10° NW
Cosmos 1500 Rocket 3.9 21:50:05 10° NNW 21:54:20 61° W 21:54:28 60° WSW
USA 215 3.1 21:48:21 11° NE 21:54:39 73° SE 22:01:09 10° SW
Cosmos 1725 Rocket 3.9 21:48:46 10° S 21:55:00 84° W 22:01:13 10° N
Helios 1B rocket 4.4 21:53:01 10° NNW 21:56:34 28° WNW 22:00:04 10° SW
CZ-4C R/B 2.3 21:55:38 10° SW 22:00:45 70° WNW 22:06:31 10° NNE
Cosmos 2151 3.8 21:57:51 10° NNW 22:00:57 46° NNW 22:00:57 46° NNW
Cosmos 2251 Rocket 3.9 21:57:54 10° NNW 22:03:09 59° WSW 22:04:02 52° SW
OAO 2 Rocket 4.3 22:17:18 10° W 22:20:52 45° W 22:20:52 45° W
Tsikada Rocket 4.3 22:19:01 10° NNW 22:25:10 63° W 22:25:55 58° SW
ERS-1 Rocket 4.4 22:43:10 34° WNW 22:43:10 34° WNW 22:46:29 10° NNW
H-2A R/B 4.3 23:09:11 19° N 23:09:11 19° N 23:10:37 10° N
